Sioux City, IA

3:09 PM CST on December 14, 2019 (GMT -0600)
Sioux Gateway

Weather History for KSUX - October, 2019

Change the Weather History Date:

Thursday, October 17, 2019

  Actual Average Record
Temperature  
Mean Temperature 50 °F 50 °F  
Max Temperature 68 °F 63 °F 89 °F (1961)
Min Temperature 33 °F 38 °F 15 °F (1976)
Degree Days  
Heating Degree Days 14 15  
Month to date heating degree days 279 203  
Since 1 July heating degree days 315 350  
Cooling Degree Days 0 0  
Month to date cooling degree days 0 8  
Year to date cooling degree days 910 869  
Moisture  
Dew Point 39 °F    
Average Humidity 71    
Maximum Humidity 96    
Minimum Humidity 42    
Precipitation  
Precipitation 0.00 in 0.07 in 0.77 in (1968)
Month to date precipitation 2.17 1.37  
Year to date precipitation 30.28 24.87  
Snow  
Snow 0.00 in 0.10 in 1.40 in (1898)
Month to date snowfall T 0.3  
Since 1 July snowfall T 0.3  
Since 1 September snowfall T 0.3  
Snow Depth 0.00 in    
Sea Level Pressure  
Sea Level Pressure 29.88 in    
Wind  
Wind Speed 9 mph ()    
Max Wind Speed 21 mph    
Max Gust Speed 27 mph    
Visibility 10.0 miles    
Events      
T = Trace of Precipitation, MM = Missing Value Source: Averaged Metar Reports

Daily Weather History Graph

Daily Weather History Graph

Search for Another Location

Airport or City:

Astronomy

Oct. 17, 2019 Rise Set
Actual Time 7:40 AM CDT 6:40 PM CDT
Civil Twilight 7:12 AM CDT 7:08 PM CDT
Nautical Twilight 6:39 AM CDT 7:41 PM CDT
Astronomical Twilight 6:06 AM CDT 8:14 PM CDT
Moon 9:09 PM CDT (10/17) 11:17 AM CDT (10/17)
Length of Visible Light 11h 56m
Length of Day
11h 00m
Waning Gibbous, 86% of the Moon is Illuminated
Oct 17
Waning Gibbous
Oct 21
Last Quarter
Oct 27
New
Nov 4
First Quarter
Nov 12
Full

Hourly Weather History & Observations

Time (CDT) Temp. Windchill Dew Point Humidity Pressure Visibility Wind Dir Wind Speed Gust Speed Precip Events Conditions
12:52 AM 36.0 °F 30.3 °F 34.0 °F 93% 30.03 in 10.0 mi ESE 6.9 mph - N/A   Clear
1:52 AM 34.0 °F 27.2 °F 32.0 °F 92% 30.02 in 10.0 mi ESE 8.1 mph - N/A   Clear
2:52 AM 35.1 °F 28.6 °F 33.1 °F 92% 29.99 in 10.0 mi SE 8.1 mph - N/A   Clear
3:52 AM 34.0 °F 28.0 °F 32.0 °F 92% 29.98 in 10.0 mi ESE 6.9 mph - N/A   Clear
4:52 AM 34.0 °F 27.2 °F 30.9 °F 89% 29.97 in 10.0 mi ESE 8.1 mph - N/A   Clear
5:52 AM 33.1 °F 26.1 °F 32.0 °F 96% 29.97 in 10.0 mi ESE 8.1 mph - N/A   Clear
6:52 AM 35.1 °F 28.6 °F 33.1 °F 92% 29.97 in 10.0 mi ESE 8.1 mph - N/A   Clear
7:52 AM 34.0 °F 28.0 °F 32.0 °F 92% 29.97 in 10.0 mi ESE 6.9 mph - N/A   Clear
8:52 AM 39.0 °F 34.0 °F 36.0 °F 89% 29.97 in 10.0 mi ESE 6.9 mph - N/A   Clear
9:52 AM 46.0 °F 40.6 °F 39.0 °F 76% 29.96 in 10.0 mi SSE 11.5 mph - N/A   Clear
10:52 AM 51.1 °F - 41.0 °F 68% 29.94 in 10.0 mi SSE 15.0 mph - N/A   Clear
11:52 AM 55.9 °F - 41.0 °F 57% 29.91 in 10.0 mi SE 12.7 mph - N/A   Clear
12:52 PM 60.1 °F - 42.1 °F 51% 29.89 in 10.0 mi SSE 15.0 mph 23.0 mph N/A   Clear
1:52 PM 61.0 °F - 42.1 °F 50% 29.86 in 10.0 mi SSE 15.0 mph - N/A   Clear
2:52 PM 64.0 °F - 43.0 °F 46% 29.82 in 10.0 mi South 15.0 mph - N/A   Clear
3:52 PM 66.9 °F - 43.0 °F 42% 29.79 in 10.0 mi South 17.3 mph 24.2 mph N/A   Clear
4:52 PM 66.0 °F - 42.1 °F 42% 29.78 in 10.0 mi SSE 16.1 mph 24.2 mph N/A   Clear
5:52 PM 62.1 °F - 44.1 °F 52% 29.78 in 10.0 mi SSE 11.5 mph - N/A   Clear
6:52 PM 59.0 °F - 44.1 °F 58% 29.78 in 10.0 mi SE 9.2 mph - N/A   Clear
7:52 PM 53.1 °F - 43.0 °F 69% 29.78 in 10.0 mi SE 9.2 mph - N/A   Clear
8:52 PM 53.1 °F - 42.1 °F 66% 29.77 in 10.0 mi SE 11.5 mph - N/A   Clear
9:52 PM 53.1 °F - 43.0 °F 69% 29.76 in 10.0 mi SE 12.7 mph - N/A   Clear
10:52 PM 52.0 °F - 43.0 °F 71% 29.75 in 10.0 mi SE 11.5 mph - N/A   Clear
11:52 PM 52.0 °F - 43.0 °F 71% 29.74 in 10.0 mi SE 12.7 mph - N/A   Clear